,,Stat6,,Stat2,,Stat8,,Stat9,,Stat10,,Wind1,,Wind1,
time,status,PA1M_AVG,status,PR1M_SUM,status,RH1M_AVG,status,SR1M_AVG,status,TA1M_AVG,status,W1dAve1m,status,W1sAve1m,
2004-12-01, 00:00:00,VALID,918.778,VALID,0,VALID,100,VALID,0,VALID,19.2595,VALID,107,VALID,0.715732,
2004-12-01, 00:01:00,VALID,918.773,VALID,0,VALID,100,VALID,-0.0169808,VALID,19.2563,VALID,84,VALID,0.781068,
2004-12-01, 00:02:00,VALID,918.78,VALID,0,VALID,100,VALID,0,VALID,19.2921,VALID,67,VALID,0.665838,
2004-12-01, 00:03:00,VALID,918.768,VALID,0,VALID,100,VALID,-0.0169808,VALID,19.2918,VALID,73,VALID,0.765439,
2004-12-01, 00:04:00,VALID,918.76,VALID,0,VALID,100,VALID,-0.0169808,VALID,19.2856,VALID,60,VALID,0.343217,
2004-12-01, 00:05:00,VALID,918.737,VALID,0,VALID,100,VALID,-0.0169808,VALID,19.3015,VALID,49,VALID,0.421131,
2004-12-01, 00:06:00,VALID,918.722,VALID,0,VALID,100,VALID,0,VALID,19.3144,VALID,49,VALID,0.685501,
2004-12-01, 00:07:00,VALID,918.69,VALID,0,VALID,100,VALID,-0.0169808,VALID,19.3241,VALID,51,VALID,0.89117,
2004-12-01, 00:08:00,VALID,918.67,VALID,0,VALID,100,VALID,-0.0169808,VALID,19.3244,VALID,67,VALID,0.902439,
2004-12-01, 00:09:00,VALID,918.642,VALID,0,VALID,100,VALID,-0.0509425,VALID,19.2988,VALID,74,VALID,0.732469,
2004-12-01, 00:10:00,VALID,918.625,VALID,0,VALID,100,VALID,0,VALID,19.2856,VALID,72,VALID,0.801897,
2004-12-01, 00:11:00,VALID,918.615,VALID,0,VALID,100,VALID,-0.0849042,VALID,19.2928,VALID,81,VALID,0.652058,
2004-12-01, 00:12:00,VALID,918.603,VALID,0,VALID,100,VALID,-0.0339617,VALID,19.2565,VALID,93,VALID,0.779762,
2004-12-01, 00:13:00,VALID,918.578,VALID,0.2,VALID,100,VALID,-0.0339617,VALID,19.2469,VALID,98,VALID,0.653232,
2004-12-01, 00:14:00,VALID,918.572,VALID,0,VALID,100,VALID,-0.0169808,VALID,19.2434,VALID,106,VALID,0.855078,
2004-12-01, 00:15:00,VALID,918.548,VALID,0,VALID,100,VALID,-0.0169808,VALID,19.2369,VALID,103,VALID,0.913542,
2004-12-01, 00:16:00,VALID,918.523,VALID,0,VALID,100,VALID,-0.0509425,VALID,19.2402,VALID,96,VALID,0.604833,
2004-12-01, 00:17:00,VALID,918.511,VALID,0,VALID,100,VALID,-0.0339617,VALID,19.2533,VALID,81,VALID,0.735137,
2004-12-01, 00:18:00,VALID,918.483,VALID,0,VALID,100,VALID,-0.0339617,VALID,19.2369,VALID,93,VALID,0.857279,
2004-12-01, 00:19:00,VALID,918.448,VALID,0,VALID,100,VALID,-0.0169808,VALID,19.2498,VALID,76,VALID,0.847284,
2004-12-01, 00:20:00,VALID,918.409,VALID,0,VALID,100,VALID,0,VALID,19.26,VALID,64,VALID,1.0928,
2004-12-01, 00:21:00,VALID,918.39,VALID,0,VALID,100,VALID,0,VALID,19.2531,VALID,79,VALID,1.22456,
2004-12-01, 00:22:00,VALID,918.378,VALID,0,VALID,100,VALID,-0.0169808,VALID,19.2402,VALID,79,VALID,1.23624,
2004-12-01, 00:23:00,VALID,918.382,VALID,0,VALID,100,VALID,-0.0169808,VALID,19.224,VALID,81,VALID,1.08774,
2004-12-01, 00:24:00,VALID,918.374,VALID,0,VALID,100,VALID,0,VALID,19.23,VALID,70,VALID,0.923209,
2004-12-01, 00:25:00,VALID,918.369,VALID,0,VALID,100,VALID,0,VALID,19.2369,VALID,81,VALID,0.875191,
2004-12-01, 00:26:00,VALID,918.375,VALID,0,VALID,100,VALID,-0.0169808,VALID,19.2307,VALID,92,VALID,0.881359,
2004-12-01, 00:27:00,VALID,918.377,VALID,0,VALID,100,VALID,0,VALID,19.2272,VALID,90,VALID,0.934411,
2004-12-01, 00:28:00,VALID,918.356,VALID,0,VALID,100,VALID,0,VALID,19.2339,VALID,86,VALID,0.751999,
2004-12-01, 00:29:00,VALID,918.349,VALID,0,VALID,100,VALID,0,VALID,19.2305,VALID,59,VALID,0.500888,
2004-12-01, 00:30:00,VALID,918.353,VALID,0,VALID,100,VALID,-0.0339617,VALID,19.2439,VALID,88,VALID,0.629542,
2004-12-01, 00:31:00,VALID,918.328,VALID,0,VALID,100,VALID,0,VALID,19.2307,VALID,81,VALID,0.673921,
2004-12-01, 00:32:00,VALID,918.317,VALID,0,VALID,100,VALID,-0.0169808,VALID,19.224,VALID,65,VALID,0.904251,
2004-12-01, 00:33:00,VALID,918.318,VALID,0,VALID,100,VALID,-0.0169808,VALID,19.2213,VALID,71,VALID,0.783507,
2004-12-01, 00:34:00,VALID,918.323,VALID,0,VALID,100,VALID,-0.0339617,VALID,19.218,VALID,62,VALID,0.37173,
2004-12-01, 00:35:00,VALID,918.332,VALID,0,VALID,100,VALID,0,VALID,19.2277,VALID,62,VALID,0.445694,
2004-12-01, 00:36:00,VALID,918.332,VALID,0,VALID,100,VALID,0,VALID,19.2213,VALID,60,VALID,0.451758,
2004-12-01, 00:37:00,VALID,918.333,VALID,0,VALID,100,VALID,0.0169808,VALID,19.2374,VALID,59,VALID,0.432813,
2004-12-01, 00:38:00,VALID,918.314,VALID,0,VALID,100,VALID,0.0169808,VALID,19.2533,VALID,58,VALID,0.562832,
2004-12-01, 00:39:00,VALID,918.298,VALID,0,VALID,100,VALID,-0.0169808,VALID,19.2327,VALID,58,VALID,0.542696,
2004-12-01, 00:40:00,VALID,918.27,VALID,0,VALID,100,VALID,0,VALID,19.2372,VALID,59,VALID,0.616602,
2004-12-01, 00:41:00,VALID,918.24,VALID,0,VALID,100,VALID,-0.0169808,VALID,19.2312,VALID,69,VALID,0.797447,
2004-12-01, 00:42:00,VALID,918.191,VALID,0,VALID,100,VALID,-0.0169808,VALID,19.2109,VALID,79,VALID,0.833757,
2004-12-01, 00:43:00,VALID,918.155,VALID,0,VALID,100,VALID,-0.0169808,VALID,19.2021,VALID,83,VALID,1.07467,
2004-12-01, 00:44:00,VALID,918.139,VALID,0,VALID,100,VALID,-0.0339617,VALID,19.2017,VALID,81,VALID,0.928961,
2004-12-01, 00:45:00,VALID,918.118,VALID,0,VALID,100,VALID,-0.0509425,VALID,19.2215,VALID,59,VALID,0.931108,
2004-12-01, 00:46:00,VALID,918.09,VALID,0,VALID,100,VALID,0,VALID,19.2374,VALID,36,VALID,1.15305,
2004-12-01, 00:47:00,VALID,918.068,VALID,0,VALID,100,VALID,-0.0339617,VALID,19.2374,VALID,44,VALID,1.22898,
2004-12-01, 00:48:00,VALID,918.042,VALID,0,VALID,100,VALID,-0.0339617,VALID,19.2441,VALID,46,VALID,1.27121,
2004-12-01, 00:49:00,VALID,918.015,VALID,0,VALID,100,VALID,-0.0339617,VALID,19.2506,VALID,50,VALID,1.08339,
2004-12-01, 00:50:00,VALID,917.979,VALID,0,VALID,100,VALID,0,VALID,19.263,VALID,55,VALID,1.24638,
2004-12-01, 00:51:00,VALID,917.947,VALID,0,VALID,100,VALID,0,VALID,19.2598,VALID,47,VALID,1.16025,
2004-12-01, 00:52:00,VALID,917.915,VALID,0,VALID,100,VALID,0,VALID,19.269,VALID,53,VALID,1.17931,
2004-12-01, 00:53:00,VALID,917.872,VALID,0,VALID,100,VALID,-0.0339617,VALID,19.2796,VALID,51,VALID,1.18867,
2004-12-01, 00:54:00,VALID,917.849,VALID,0,VALID,100,VALID,-0.0169808,VALID,19.2859,VALID,50,VALID,0.938734,
2004-12-01, 00:55:00,VALID,917.825,VALID,0,VALID,100,VALID,-0.0339617,VALID,19.2918,VALID,60,VALID,0.812706,
2004-12-01, 00:56:00,VALID,917.802,VALID,0,VALID,100,VALID,0,VALID,19.3052,VALID,63,VALID,0.877362,
2004-12-01, 00:57:00,VALID,917.778,VALID,0,VALID,100,VALID,-0.0169808,VALID,19.3052,VALID,72,VALID,0.830035,
2004-12-01, 00:58:00,VALID,917.75,VALID,0,VALID,100,VALID,0,VALID,19.2951,VALID,73,VALID,1.06117,
2004-12-01, 00:59:00,VALID,917.729,VALID,0,VALID,100,VALID,0,VALID,19.2916,VALID,72,VALID,1.06898,
2004-12-01, 01:00:00,VALID,917.713,VALID,0,VALID,100,VALID,0,VALID,19.3018,VALID,73,VALID,0.73544,
2004-12-01, 01:01:00,VALID,917.68,VALID,0,VALID,100,VALID,-0.0169808,VALID,19.3015,VALID,77,VALID,0.635861,
2004-12-01, 01:02:00,VALID,917.655,VALID,0,VALID,100,VALID,-0.0679233,VALID,19.3186,VALID,77,VALID,0.697493,
2004-12-01, 01:03:00,VALID,917.645,VALID,0,VALID,100,VALID,-0.0679233,VALID,19.3221,VALID,72,VALID,0.571987,
2004-12-01, 01:04:00,VALID,917.628,VALID,0,VALID,100,VALID,-0.101885,VALID,19.3348,VALID,67,VALID,0.587652,
2004-12-01, 01:05:00,VALID,917.61,VALID,0,VALID,100,VALID,-0.0849042,VALID,19.3253,VALID,53,VALID,0.584121,
2004-12-01, 01:06:00,VALID,917.605,VALID,0,VALID,100,VALID,-0.101885,VALID,19.3323,VALID,36,VALID,0.567294,
2004-12-01, 01:07:00,VALID,917.596,VALID,0,VALID,100,VALID,-0.0849042,VALID,19.3124,VALID,42,VALID,0.525981,
2004-12-01, 01:08:00,VALID,917.59,VALID,0,VALID,100,VALID,-0.101885,VALID,19.3196,VALID,46,VALID,0.435764,
2004-12-01, 01:09:00,VALID,917.581,VALID,0,VALID,100,VALID,-0.101885,VALID,19.3194,VALID,46,VALID,0.16654,
2004-12-01, 01:10:00,VALID,917.575,VALID,0,VALID,100,VALID,-0.101885,VALID,19.3224,VALID,46,VALID,0.350472,
2004-12-01, 01:11:00,VALID,917.557,VALID,0,VALID,100,VALID,-0.101885,VALID,19.3353,VALID,33,VALID,0.444586,
2004-12-01, 01:12:00,VALID,917.548,VALID,0,VALID,100,VALID,-0.101885,VALID,19.2995,VALID,16,VALID,0.5242,
2004-12-01, 01:13:00,VALID,917.536,VALID,0,VALID,100,VALID,-0.101885,VALID,19.2965,VALID,5,VALID,0.359747,
2004-12-01, 01:14:00,VALID,917.529,VALID,0,VALID,100,VALID,-0.0849042,VALID,19.3025,VALID,4,VALID,0.449505,
2004-12-01, 01:15:00,VALID,917.518,VALID,0,VALID,100,VALID,-0.0679233,VALID,19.2995,VALID,4,VALID,0.357329,
2004-12-01, 01:16:00,VALID,917.496,VALID,0,VALID,100,VALID,-0.0679233,VALID,19.2836,VALID,4,VALID,0.530107,
2004-12-01, 01:17:00,VALID,917.486,VALID,0,VALID,100,VALID,-0.0339617,VALID,19.269,VALID,359,VALID,0.509766,
2004-12-01, 01:18:00,VALID,917.477,VALID,0,VALID,100,VALID,0.0169808,VALID,19.2824,VALID,358,VALID,0.323847,
2004-12-01, 01:19:00,VALID,917.47,VALID,0,VALID,100,VALID,0.0169808,VALID,19.2951,VALID,358,VALID,0.352805,
2004-12-01, 01:20:00,VALID,917.468,VALID,0,VALID,100,VALID,0.0339617,VALID,19.2851,VALID,358,VALID,0.228087,
2004-12-01, 01:21:00,VALID,917.461,VALID,0,VALID,100,VALID,0.0339617,VALID,19.2824,VALID,358,VALID,0.110465,
2004-12-01, 01:22:00,VALID,917.46,VALID,0,VALID,100,VALID,0.0169808,VALID,19.2757,VALID,358,VALID,0,
2004-12-01, 01:23:00,VALID,917.475,VALID,0,VALID,100,VALID,0.0339617,VALID,19.2821,VALID,358,VALID,0,
2004-12-01, 01:24:00,VALID,917.492,VALID,0,VALID,100,VALID,0,VALID,19.2946,VALID,358,VALID,0,
2004-12-01, 01:25:00,VALID,917.506,VALID,0,VALID,100,VALID,0.0169808,VALID,19.2983,VALID,358,VALID,0.223722,
2004-12-01, 01:26:00,VALID,917.516,VALID,0,VALID,100,VALID,0.0169808,VALID,19.2821,VALID,323,VALID,0.589208,
2004-12-01, 01:27:00,VALID,917.55,VALID,0,VALID,100,VALID,0,VALID,19.2821,VALID,274,VALID,0.599564,
2004-12-01, 01:28:00,VALID,917.582,VALID,0,VALID,100,VALID,0,VALID,19.2759,VALID,244,VALID,0.924733,
2004-12-01, 01:29:00,VALID,917.601,VALID,0,VALID,100,VALID,0,VALID,19.2759,VALID,211,VALID,0.668826,
2004-12-01, 01:30:00,VALID,917.63,VALID,0,VALID,100,VALID,0.0169808,VALID,19.2658,VALID,222,VALID,0.653023,
2004-12-01, 01:31:00,VALID,917.655,VALID,0,VALID,100,VALID,0.0339617,VALID,19.2851,VALID,218,VALID,0.786337,
2004-12-01, 01:32:00,VALID,917.665,VALID,0,VALID,100,VALID,0.0169808,VALID,19.2879,VALID,237,VALID,0.772711,
2004-12-01, 01:33:00,VALID,917.671,VALID,0,VALID,100,VALID,0.0169808,VALID,19.3015,VALID,247,VALID,0.556463,
2004-12-01, 01:34:00,VALID,917.661,VALID,0,VALID,100,VALID,0,VALID,19.3052,VALID,221,VALID,0.521019,
2004-12-01, 01:35:00,VALID,917.656,VALID,0,VALID,100,VALID,0.0169808,VALID,19.2821,VALID,220,VALID,0.700457,
2004-12-01, 01:36:00,VALID,917.635,VALID,0,VALID,100,VALID,0,VALID,19.2687,VALID,234,VALID,0.820135,
2004-12-01, 01:37:00,VALID,917.608,VALID,0,VALID,100,VALID,0.0169808,VALID,19.2501,VALID,227,VALID,1.18872,
2004-12-01, 01:38:00,VALID,917.601,VALID,0,VALID,100,VALID,0,VALID,19.2263,VALID,214,VALID,0.795058,
2004-12-01, 01:39:00,VALID,917.564,VALID,0,VALID,100,VALID,0.0339617,VALID,19.2434,VALID,227,VALID,0.396802,
2004-12-01, 01:40:00,VALID,917.561,VALID,0,VALID,100,VALID,0,VALID,19.227,VALID,189,VALID,0.558689,
2004-12-01, 01:41:00,VALID,917.542,VALID,0,VALID,100,VALID,0.0169808,VALID,19.2501,VALID,219,VALID,0.317535,
2004-12-01, 01:42:00,VALID,917.521,VALID,0,VALID,100,VALID,0.0169808,VALID,19.227,VALID,210,VALID,0.536204,
2004-12-01, 01:43:00,VALID,917.531,VALID,0,VALID,100,VALID,0,VALID,19.2168,VALID,204,VALID,0.478849,
2004-12-01, 01:44:00,VALID,917.524,VALID,0,VALID,100,VALID,0,VALID,19.2173,VALID,201,VALID,0.314174,
2004-12-01, 01:45:00,VALID,917.513,VALID,0,VALID,100,VALID,0,VALID,19.2138,VALID,201,VALID,0.208939,
2004-12-01, 01:46:00,VALID,917.515,VALID,0,VALID,100,VALID,0,VALID,19.2302,VALID,200,VALID,0.283249,
2004-12-01, 01:47:00,VALID,917.492,VALID,0,VALID,100,VALID,-0.0849042,VALID,19.2317,VALID,192,VALID,0.310082,
2004-12-01, 01:48:00,VALID,917.485,VALID,0,VALID,100,VALID,-0.101885,VALID,19.222,VALID,192,VALID,0.144259,
2004-12-01, 01:49:00,VALID,917.485,VALID,0,VALID,100,VALID,-0.101885,VALID,19.219,VALID,222,VALID,0.550037,
2004-12-01, 01:50:00,VALID,917.456,VALID,0,VALID,100,VALID,-0.0849042,VALID,19.2222,VALID,235,VALID,0.155449,
2004-12-01, 01:51:00,VALID,917.452,VALID,0,VALID,100,VALID,-0.0679233,VALID,19.2193,VALID,233,VALID,0.323946,
2004-12-01, 01:52:00,VALID,917.442,VALID,0,VALID,100,VALID,-0.101885,VALID,19.2059,VALID,230,VALID,0.407118,
2004-12-01, 01:53:00,VALID,917.436,VALID,0,VALID,100,VALID,-0.0849042,VALID,19.2029,VALID,235,VALID,0.387005,
2004-12-01, 01:54:00,VALID,917.432,VALID,0,VALID,100,VALID,-0.101885,VALID,19.2091,VALID,235,VALID,0.217152,
2004-12-01, 01:55:00,VALID,917.431,VALID,0,VALID,100,VALID,-0.118866,VALID,19.2026,VALID,235,VALID,0.218378,
2004-12-01, 01:56:00,VALID,917.413,VALID,0,VALID,100,VALID,-0.0849042,VALID,19.1959,VALID,200,VALID,0.40483,
2004-12-01, 01:57:00,VALID,917.399,VALID,0,VALID,100,VALID,-0.0679233,VALID,19.1957,VALID,180,VALID,0.13157,
2004-12-01, 01:58:00,VALID,917.391,VALID,0,VALID,100,VALID,-0.101885,VALID,19.1892,VALID,180,VALID,0.012718,
2004-12-01, 01:59:00,VALID,917.369,VALID,0,VALID,100,VALID,-0.0849042,VALID,19.2026,VALID,180,VALID,0,
2004-12-01, 02:00:00,VALID,917.365,VALID,0,VALID,100,VALID,-0.101885,VALID,19.2193,VALID,180,VALID,0,
2004-12-01, 02:01:00,VALID,917.352,VALID,0,VALID,100,VALID,-0.0849042,VALID,19.2086,VALID,180,VALID,0.286204,
2004-12-01, 02:02:00,VALID,917.339,VALID,0,VALID,100,VALID,-0.0679233,VALID,19.2215,VALID,180,VALID,0.0979421,
2004-12-01, 02:03:00,VALID,917.323,VALID,0,VALID,100,VALID,-0.101885,VALID,19.2151,VALID,180,VALID,0.0373884,
2004-12-01, 02:04:00,VALID,917.301,VALID,0,VALID,100,VALID,-0.0679233,VALID,19.1957,VALID,180,VALID,0.0797602,
2004-12-01, 02:05:00,VALID,917.286,VALID,0,VALID,100,VALID,-0.0849042,VALID,19.1954,VALID,180,VALID,0.134673,
2004-12-01, 02:06:00,VALID,917.269,VALID,0,VALID,100,VALID,-0.0849042,VALID,19.2056,VALID,180,VALID,0.19931,
2004-12-01, 02:07:00,VALID,917.244,VALID,0,VALID,100,VALID,-0.0849042,VALID,19.1865,VALID,147,VALID,0.507626,
2004-12-01, 02:08:00,VALID,917.226,VALID,0,VALID,100,VALID,-0.0509425,VALID,19.1673,VALID,125,VALID,0.470203,
2004-12-01, 02:09:00,VALID,917.213,VALID,0,VALID,100,VALID,-0.0849042,VALID,19.1512,VALID,122,VALID,0.350852,
2004-12-01, 02:10:00,VALID,917.202,VALID,0,VALID,100,VALID,-0.0679233,VALID,19.1477,VALID,96,VALID,0.456395,
2004-12-01, 02:11:00,VALID,917.199,VALID,0,VALID,100,VALID,-0.0679233,VALID,19.1341,VALID,69,VALID,0.573171,
2004-12-01, 02:12:00,VALID,917.198,VALID,0,VALID,100,VALID,-0.0679233,VALID,19.1316,VALID,61,VALID,0.587936,
2004-12-01, 02:13:00,VALID,917.191,VALID,0,VALID,100,VALID,-0.0509425,VALID,19.1281,VALID,52,VALID,0.549132,
2004-12-01, 02:14:00,VALID,917.193,VALID,0,VALID,100,VALID,-0.0849042,VALID,19.1281,VALID,52,VALID,0.509055,
2004-12-01, 02:15:00,VALID,917.183,VALID,0,VALID,100,VALID,-0.0849042,VALID,19.1216,VALID,52,VALID,0.571837,
2004-12-01, 02:16:00,VALID,917.175,VALID,0,VALID,100,VALID,-0.0849042,VALID,19.1321,VALID,52,VALID,0.630996,
2004-12-01, 02:17:00,VALID,917.156,VALID,0,VALID,100,VALID,-0.0679233,VALID,19.1187,VALID,45,VALID,0.690168,
2004-12-01, 02:18:00,VALID,917.141,VALID,0,VALID,100,VALID,-0.101885,VALID,19.1184,VALID,33,VALID,0.773849,
2004-12-01, 02:19:00,VALID,917.113,VALID,0,VALID,100,VALID,-0.0849042,VALID,19.1184,VALID,32,VALID,0.864826,
2004-12-01, 02:20:00,VALID,917.1,VALID,0,VALID,100,VALID,-0.0849042,VALID,19.0988,VALID,34,VALID,0.809152,
2004-12-01, 02:21:00,VALID,917.078,VALID,0,VALID,100,VALID,-0.0679233,VALID,19.1023,VALID,41,VALID,0.597202,
2004-12-01, 02:22:00,VALID,917.073,VALID,0,VALID,100,VALID,-0.118866,VALID,19.1127,VALID,43,VALID,0.513626,
2004-12-01, 02:23:00,VALID,917.053,VALID,0,VALID,100,VALID,-0.101885,VALID,19.106,VALID,43,VALID,0.302083,
2004-12-01, 02:24:00,VALID,917.04,VALID,0,VALID,100,VALID,-0.101885,VALID,19.1025,VALID,43,VALID,0.515997,
2004-12-01, 02:25:00,VALID,917.019,VALID,0,VALID,100,VALID,-0.0849042,VALID,19.0829,VALID,43,VALID,0.495561,
2004-12-01, 02:26:00,VALID,917.007,VALID,0,VALID,100,VALID,-0.0849042,VALID,19.0963,VALID,43,VALID,0.633721,
2004-12-01, 02:27:00,VALID,916.983,VALID,0,VALID,100,VALID,-0.101885,VALID,19.1,VALID,44,VALID,0.685826,
2004-12-01, 02:28:00,VALID,916.967,VALID,0,VALID,100,VALID,-0.101885,VALID,19.0762,VALID,44,VALID,0.664063,
2004-12-01, 02:29:00,VALID,916.93,VALID,0,VALID,100,VALID,-0.101885,VALID,19.0868,VALID,47,VALID,0.856213,
2004-12-01, 02:30:00,VALID,916.908,VALID,0,VALID,100,VALID,-0.101885,VALID,19.0772,VALID,56,VALID,0.808854,
2004-12-01, 02:31:00,VALID,916.877,VALID,0,VALID,100,VALID,-0.101885,VALID,19.064,VALID,68,VALID,0.775856,
2004-12-01, 02:32:00,VALID,916.855,VALID,0,VALID,100,VALID,-0.101885,VALID,19.0474,VALID,73,VALID,0.934896,
2004-12-01, 02:33:00,VALID,916.833,VALID,0,VALID,100,VALID,-0.118866,VALID,19.0516,VALID,73,VALID,0.718568,
2004-12-01, 02:34:00,VALID,916.816,VALID,0,VALID,100,VALID,-0.101885,VALID,19.0379,VALID,79,VALID,0.858817,
2004-12-01, 02:35:00,VALID,916.809,VALID,0,VALID,100,VALID,-0.101885,VALID,19.058,VALID,65,VALID,0.651278,
2004-12-01, 02:36:00,VALID,916.797,VALID,0,VALID,100,VALID,-0.118866,VALID,19.0645,VALID,64,VALID,0.697218,
2004-12-01, 02:37:00,VALID,916.785,VALID,0,VALID,100,VALID,-0.101885,VALID,19.064,VALID,71,VALID,0.664063,
2004-12-01, 02:38:00,VALID,916.771,VALID,0,VALID,100,VALID,-0.0849042,VALID,19.0804,VALID,75,VALID,0.398056,
2004-12-01, 02:39:00,VALID,916.764,VALID,0,VALID,100,VALID,-0.0849042,VALID,19.0767,VALID,96,VALID,0.682227,
2004-12-01, 02:40:00,VALID,916.745,VALID,0,VALID,100,VALID,-0.0849042,VALID,19.0831,VALID,99,VALID,0.478993,
2004-12-01, 02:41:00,VALID,916.722,VALID,0,VALID,100,VALID,-0.0849042,VALID,19.0935,VALID,90,VALID,0.4758,
2004-12-01, 02:42:00,VALID,916.695,VALID,0,VALID,100,VALID,-0.101885,VALID,19.0638,VALID,31,VALID,0.712612,
2004-12-01, 02:43:00,VALID,916.678,VALID,0,VALID,100,VALID,-0.0849042,VALID,19.0282,VALID,33,VALID,0.579167,
2004-12-01, 02:44:00,VALID,916.652,VALID,0,VALID,100,VALID,-0.101885,VALID,19.0215,VALID,37,VALID,0.590946,
2004-12-01, 02:45:00,VALID,916.64,VALID,0,VALID,100,VALID,-0.0679233,VALID,19.0089,VALID,37,VALID,0.501817,
2004-12-01, 02:46:00,VALID,916.634,VALID,0,VALID,100,VALID,-0.0849042,VALID,18.9992,VALID,37,VALID,0.393029,
2004-12-01, 02:47:00,VALID,916.625,VALID,0,VALID,100,VALID,-0.0849042,VALID,18.9867,VALID,37,VALID,0.227751,
2004-12-01, 02:48:00,VALID,916.628,VALID,0,VALID,100,VALID,-0.101885,VALID,18.9671,VALID,37,VALID,0.0105378,
2004-12-01, 02:49:00,VALID,916.632,VALID,0,VALID,100,VALID,-0.0849042,VALID,18.9577,VALID,36,VALID,0,
2004-12-01, 02:50:00,VALID,916.622,VALID,0,VALID,100,VALID,-0.0849042,VALID,18.954,VALID,36,VALID,0,
2004-12-01, 02:51:00,VALID,916.605,VALID,0,VALID,100,VALID,-0.0849042,VALID,18.9381,VALID,37,VALID,0,
2004-12-01, 02:52:00,VALID,916.604,VALID,0,VALID,100,VALID,-0.101885,VALID,18.9413,VALID,37,VALID,0.0335582,
2004-12-01, 02:53:00,VALID,916.584,VALID,0,VALID,100,VALID,-0.101885,VALID,18.8859,VALID,37,VALID,0.104353,
2004-12-01, 02:54:00,VALID,916.581,VALID,0,VALID,100,VALID,-0.118866,VALID,18.8869,VALID,37,VALID,0.226389,
2004-12-01, 02:55:00,VALID,916.582,VALID,0,VALID,100,VALID,-0.118866,VALID,18.8578,VALID,37,VALID,0.205729,
2004-12-01, 02:56:00,VALID,916.571,VALID,0,VALID,100,VALID,-0.0849042,VALID,18.8382,VALID,37,VALID,0.306836,
2004-12-01, 02:57:00,VALID,916.562,VALID,0,VALID,100,VALID,-0.0849042,VALID,18.8248,VALID,37,VALID,0.468359,
2004-12-01, 02:58:00,VALID,916.558,VALID,0,VALID,100,VALID,-0.0679233,VALID,18.8151,VALID,36,VALID,0.343572,
2004-12-01, 02:59:00,VALID,916.551,VALID,0,VALID,100,VALID,-0.0849042,VALID,18.7928,VALID,36,VALID,0.263579,
2004-12-01, 03:00:00,VALID,916.55,VALID,0,VALID,100,VALID,-0.0849042,VALID,18.7672,VALID,36,VALID,0.240916,
2004-12-01, 03:01:00,VALID,916.546,VALID,0,VALID,100,VALID,-0.0849042,VALID,18.7446,VALID,37,VALID,0.114769,
2004-12-01, 03:02:00,VALID,916.529,VALID,0,VALID,100,VALID,-0.0169808,VALID,18.7401,VALID,36,VALID,0,
2004-12-01, 03:03:00,VALID,916.515,VALID,0,VALID,100,VALID,0,VALID,18.7528,VALID,37,VALID,0,
2004-12-01, 03:04:00,VALID,916.5,VALID,0,VALID,100,VALID,0.0169808,VALID,18.7821,VALID,37,VALID,0,
2004-12-01, 03:05:00,VALID,916.476,VALID,0,VALID,100,VALID,0,VALID,18.8179,VALID,37,VALID,0.169779,
2004-12-01, 03:06:00,VALID,916.462,VALID,0,VALID,100,VALID,0,VALID,18.8661,VALID,36,VALID,0.213246,
2004-12-01, 03:07:00,VALID,916.433,VALID,0,VALID,100,VALID,0,VALID,18.8949,VALID,36,VALID,0.0470567,
2004-12-01, 03:08:00,VALID,916.43,VALID,0,VALID,100,VALID,0.0169808,VALID,18.8335,VALID,36,VALID,0,
2004-12-01, 03:09:00,VALID,916.411,VALID,0,VALID,100,VALID,0.0339617,VALID,18.8465,VALID,36,VALID,0.25,
2004-12-01, 03:10:00,VALID,916.405,VALID,0,VALID,100,VALID,0,VALID,18.8887,VALID,36,VALID,0.281597,
2004-12-01, 03:11:00,VALID,916.412,VALID,0,VALID,100,VALID,0,VALID,18.9048,VALID,35,VALID,0,
2004-12-01, 03:12:00,VALID,916.41,VALID,0,VALID,100,VALID,0.0169808,VALID,18.882,VALID,36,VALID,0,
2004-12-01, 03:13:00,VALID,916.425,VALID,0,VALID,100,VALID,0.0169808,VALID,18.8559,VALID,35,VALID,0,
2004-12-01, 03:14:00,VALID,916.428,VALID,0,VALID,100,VALID,0,VALID,18.8395,VALID,35,VALID,0,
2004-12-01, 03:15:00,VALID,916.43,VALID,0,VALID,100,VALID,0,VALID,18.8407,VALID,35,VALID,0,
2004-12-01, 03:16:00,VALID,916.439,VALID,0,VALID,100,VALID,0,VALID,18.7987,VALID,35,VALID,0,
2004-12-01, 03:17:00,VALID,916.417,VALID,0,VALID,100,VALID,0,VALID,18.766,VALID,35,VALID,0,
2004-12-01, 03:18:00,VALID,916.406,VALID,0,VALID,100,VALID,0,VALID,18.7535,VALID,35,VALID,0,
2004-12-01, 03:19:00,VALID,916.388,VALID,0,VALID,100,VALID,0.0339617,VALID,18.7598,VALID,35,VALID,0.172049,
2004-12-01, 03:20:00,VALID,916.368,VALID,0,VALID,100,VALID,0.0169808,VALID,18.7886,VALID,35,VALID,0.472569,
2004-12-01, 03:21:00,VALID,916.364,VALID,0,VALID,100,VALID,0,VALID,18.841,VALID,36,VALID,0.734375,
2004-12-01, 03:22:00,VALID,916.368,VALID,0,VALID,100,VALID,0,VALID,18.7985,VALID,35,VALID,0.766319,
2004-12-01, 03:23:00,VALID,916.366,VALID,0,VALID,100,VALID,0,VALID,18.7761,VALID,35,VALID,0.728338,
2004-12-01, 03:24:00,VALID,916.382,VALID,0,VALID,100,VALID,-0.0169808,VALID,18.7925,VALID,35,VALID,0.730469,
2004-12-01, 03:25:00,VALID,916.387,VALID,0,VALID,100,VALID,0,VALID,18.8308,VALID,34,VALID,0.831395,
2004-12-01, 03:26:00,VALID,916.397,VALID,0,VALID,100,VALID,-0.0169808,VALID,18.9053,VALID,33,VALID,0.703516,
2004-12-01, 03:27:00,VALID,916.403,VALID,0,VALID,100,VALID,-0.0509425,VALID,18.944,VALID,32,VALID,0.836979,
2004-12-01, 03:28:00,VALID,916.411,VALID,0,VALID,100,VALID,0,VALID,18.9768,VALID,31,VALID,0.785429,
2004-12-01, 03:29:00,VALID,916.414,VALID,0,VALID,100,VALID,-0.0169808,VALID,18.9537,VALID,34,VALID,0.790799,
2004-12-01, 03:30:00,VALID,916.403,VALID,0,VALID,100,VALID,-0.0339617,VALID,18.921,VALID,42,VALID,0.786156,
2004-12-01, 03:31:00,VALID,916.419,VALID,0,VALID,100,VALID,-0.0169808,VALID,18.9023,VALID,46,VALID,0.924237,
2004-12-01, 03:32:00,VALID,916.427,VALID,0,VALID,100,VALID,-0.0169808,VALID,18.8991,VALID,57,VALID,0.843023,
2004-12-01, 03:33:00,VALID,916.444,VALID,0,VALID,100,VALID,0,VALID,18.8829,VALID,64,VALID,0.819382,
2004-12-01, 03:34:00,VALID,916.448,VALID,0,VALID,100,VALID,0,VALID,18.8636,VALID,64,VALID,0.719599,
2004-12-01, 03:35:00,VALID,916.449,VALID,0,VALID,100,VALID,0,VALID,18.8248,VALID,64,VALID,0.667039,
2004-12-01, 03:36:00,VALID,916.455,VALID,0,VALID,100,VALID,-0.0339617,VALID,18.8179,VALID,69,VALID,0.756076,
2004-12-01, 03:37:00,VALID,916.444,VALID,0,VALID,100,VALID,0,VALID,18.8179,VALID,74,VALID,0.77066,
2004-12-01, 03:38:00,VALID,916.433,VALID,0,VALID,100,VALID,0,VALID,18.8209,VALID,75,VALID,0.446403,
2004-12-01, 03:39:00,VALID,916.441,VALID,0,VALID,100,VALID,0,VALID,18.8017,VALID,75,VALID,0.323946,
2004-12-01, 03:40:00,VALID,916.448,VALID,0,VALID,100,VALID,0,VALID,18.8117,VALID,75,VALID,0.404615,
2004-12-01, 03:41:00,VALID,916.458,VALID,0,VALID,100,VALID,0,VALID,18.8372,VALID,75,VALID,0.132639,
2004-12-01, 03:42:00,VALID,916.471,VALID,0,VALID,100,VALID,0,VALID,18.834,VALID,75,VALID,0.0950521,